This is the latest recevied weather packets stored in our database for station/object N2ZVN. If no packets are shown the sender has not sent any weather packets the latest 10 day(s).
| Time | Temp. | Humidity | Pressure | Rain* | Wind** | Luminosity | Snow |
|---|---|---|---|---|---|---|---|
| 1777853370 | 9.44° C | 85% | 1010 hPa | 0 mm | - | 2 W/m² | - |
| 1777853067 | 10° C | 85% | 1010 hPa | 0 mm | - | 2 W/m² | - |
| 1777852764 | 10° C | 84% | 1010.3 hPa | 1.27 mm | - | 2 W/m² | - |
| 1777852462 | 10° C | 83% | 1010.3 hPa | 1.27 mm | - | 4 W/m² | - |
| 1777852159 | 10° C | 81% | 1010.2 hPa | 0 mm | - | 4 W/m² | - |
| 1777851857 | 10° C | 80% | 1010.4 hPa | 0 mm | - | 5 W/m² | - |
| 1777851555 | 10° C | 79% | 1010.3 hPa | 0 mm | - | 6 W/m² | - |
| 1777851251 | 10.56° C | 78% | 1010.3 hPa | 0 mm | - | 5 W/m² | - |
| 1777850947 | 10.56° C | 75% | 1010 hPa | 0 mm | - | 6 W/m² | - |
| 1777850645 | 10.56° C | 73% | 1010.2 hPa | 0 mm | - | 10 W/m² | - |
| 1777850342 | 10.56° C | 71% | 1010.2 hPa | 0 mm | - | 14 W/m² | - |
| 1777850039 | 11.11° C | 70% | 1010.1 hPa | 0 mm | - | 22 W/m² | - |
| 1777849735 | 11.11° C | 66% | 1010.1 hPa | 0 mm | - | 17 W/m² | - |
| 1777849432 | 11.67° C | 62% | 1010.2 hPa | 0 mm | - | 12 W/m² | - |
| 1777849130 | 11.67° C | 59% | 1009.9 hPa | 0 mm | - | 10 W/m² | - |
| 1777848825 | 12.22° C | 56% | 1010 hPa | 0 mm | - | 17 W/m² | - |
| 1777848522 | 12.22° C | 55% | 1010.1 hPa | 0 mm | - | 16 W/m² | - |
| 1777848219 | 12.22° C | 53% | 1009.8 hPa | 0 mm | - | 26 W/m² | - |
| 1777847917 | 12.22° C | 52% | 1009.8 hPa | 0 mm | - | 35 W/m² | - |
| 1777847614 | 12.22° C | 52% | 1009.8 hPa | 0 mm | - | 60 W/m² | - |
| 1777847310 | 12.22° C | 51% | 1009.8 hPa | 0 mm | - | 47 W/m² | - |
| 1777847009 | 12.22° C | 52% | 1009.6 hPa | 0 mm | - | 69 W/m² | - |
| 1777846706 | 12.22° C | 50% | 1009.6 hPa | 0 mm | - | 75 W/m² | - |
| 1777846405 | 12.22° C | 50% | 1009.7 hPa | 0 mm | - | 63 W/m² | - |
| 1777846101 | 12.22° C | 50% | 1009.6 hPa | 0 mm | - | 52 W/m² | - |
* Rain latest hour (hover to see other rain measurements)
** Current wind speed in m/s (hover to see current wind gust speed)